CZ-6A DEB, 54506

Orbit data source: Space-Track

CZ-6A DEB, 54506 is space debris in SSO originally from a launch on Fri, 11 Nov 2022 UTC launched from the Taiyaun Space Center, China (TSC). Debris objects in space refer to the collection of defunct objects orbiting the Earth. Examples of debris include non-operational satellites, rocket bodies, and fragments generated from explosions, collisions, or faulty payload assembly.

Loading next visibility...
Identifier
54506, 2022-151JJ
Orbit
SSO
Country
Flag of CNCN / PRC
Related business
Manufacturer
SAST
Mission
Spacecraft
Bus & Motor
Unknown
Mass
Unknown
Launch date (UTC)
2022-11-11 (3 years ago)
Launch vehicle
Unknown
Launch site
Taiyaun Space Center, China (TSC)
Object type
Payload
Rocket body
Debris
Shape & HBR
Unknown shape, 1.1 m
Radar Cross Section
Small (<0.1 m²)

Expand to show TLE details & history
Last TLE update: 1 day ago

TLE from 1 day ago
0 CZ-6A DEB
1 54506U 22151JJ  25349.52768269  .00001929  00000-0  87079-3 0  9994
2 54506  98.8967  13.6430 0100683  29.7524 330.9326 14.20659300159587
Epoch: 2025-12-15T12:39Z
TLE epoch observation values (Epoch: 2025-12-15T12:39:51.784Z)
Latitude
-0.00002°
Longitude
99.25227°
Altitude
762.823 km
Speed
7.506 km/s
True Right ascension
00h 54m 34s
True Declination
0° 00' 00"
Sunlit
Object was in daylight at epoch
Visualization orbit readout
Latitude
Unknown
Longitude
Unknown
Altitude
Unknown
Speed
Unknown
Apparent Right ascension
Unknown
Apparent Declination
Unknown
Sunlit
N/A
Visualization observer readout
Local Sidereal Time
17:45:54
Azimuth
Unknown
Elevation
Unknown
Doppler factor
Unknown
Orbital elements
Apogee altitude
892.766 km
Perigee altitude
747.814 km
Semi-major axis
7,198.427 km
Eccentricity
0.01007
Inclination
98.8967°
RAAN
13.643°
Arg. of periapsis
29.7524°
True anomaly
330.36585°
Mean anomaly
330.9326°
Eccentric anomaly
330.64985°
Mean motion
3.55375 °/min
Orbital period
101.3 mins
BSTAR
0.00087079
Loading maneuver chart data...
Computing Atmospheric mass density...
Loading historical data...
Loading historical data...
Loading historical data...
Loading historical data...
Loading historical data...
Loading historical data...
Loading historical data...

Documentation

Showing up to 5 results
|